カタログに戻る

FENGYUN 1C DEB

運用中SSO
NORAD 37591·DEBRIS·🇨🇳 China

打ち上げ May 10, 1999 から Taiyuan Satellite Launch Center

Loading…

次のパス (今後24時間)

TLE

最新Source: Space-Track

元期: Sep 14, 2026, 15:32 UTC

1 37591U 99025EKK 26257.64742420  .00010402  00000-0  19930-2 0  9992
2 37591  98.4049 212.1268 0057979 220.9762 314.2639 14.62894368704862

AllMySatでFENGYUN 1C DEBをリアルタイム追跡

Download on the App Store